Flag for Luxembourg Weather past 2 weeks in Ettelbruck, Luxembourg

Now
70 °F

Overcast.


Feels Like: 75 °F
Forecast: 53 / 68 °F
Wind: 5 mph from West

Location: Luxembourg / Luxembourg

Current Time: Aug 29, 2014 at 6:31:17 PM

Latest Report: Aug 29, 2014 at 5:00 PM


Visibility: 22 mi

Pressure: 30.00 "Hg

Humidity: 63%

Dew point: 57 °F

Location of EttelbruckLocation

Historic Weather in Ettelbruck — Graph

°F

Ettelbruck temperature yesterday

Maximum temperature yesterday: 69 °F (at 6:00 PM)
Minimum temperature yesterday: 57 °F (at 4:00 AM)
Average temperature yesterday: 61 °F

Past Weeks' High & Low Weather Summary

 TemperatureHumidityPressure
High72 °F (Aug 29, 4:00 PM)100% (Aug 19, 7:00 AM)30.16 "Hg (Aug 19, 7:00 AM)
Low44 °F (Aug 21, 7:00 AM)41% (Aug 21, 5:00 PM)29.65 "Hg (Aug 26, 6:00 AM)
Average57 °F80%29.97 "Hg
* Reported Aug 14 5:00 PM — Aug 29 5:00 PM, Ettelbruck, Weather by CustomWeather, © 2014

Note: Actual official high and low records may vary slightly from our data, if they occured in-between our weather recording intervals... More about our weather records

Advertising

Ettelbruck weather history for previous 24 hours

 ConditionsComfort  
Time TempWeatherWind HumidityBarometerVisibility
5:00 PM
Aug 29
70 °FOvercast.5 mph63%30.00 "Hg22 mi
4:00 PM72 °FScattered clouds.6 mph56%30.00 "Hg22 mi
3:00 PM70 °FScattered clouds.3 mph61%30.02 "Hg22 mi
2:00 PM69 °FScattered clouds.3 mph60%30.02 "Hg16 mi
1:00 PM68 °FScattered clouds.3 mph64%30.02 "Hg16 mi
12:00 PM67 °FScattered clouds.3 mph70%30.03 "Hg11 mi
11:00 AM65 °FScattered clouds.2 mph80%30.04 "Hg11 mi
10:00 AM63 °FPartly sunny.2 mph86%30.04 "Hg7 mi
9:00 AM60 °FLow clouds.2 mph97%30.04 "Hg4 mi
8:00 AM59 °FLow clouds.1 mph97%30.03 "Hg4 mi
7:00 AM59 °FLow clouds.1 mph97%30.02 "Hg9 mi
6:00 AM60 °FLow clouds.1 mph97%30.01 "Hg9 mi
5:00 AM60 °FOvercast.2 mph97%30.02 "Hg9 mi
4:00 AM60 °FCool.1 mph97%30.01 "Hg4 mi
3:00 AM61 °FCool.2 mph97%30.01 "Hg4 mi
1:00 AM62 °FOvercast.1 mph94%30.00 "Hg17 mi
12:00 AM64 °FPassing clouds.3 mph89%29.98 "Hg17 mi
11:00 PM
Aug 28
65 °FPassing clouds.3 mph85%29.97 "Hg17 mi
10:00 PM65 °FPassing clouds.1 mph84%29.97 "Hg17 mi
9:00 PM67 °FOvercast.1 mph82%29.97 "Hg17 mi
7:00 PM68 °FOvercast.2 mph78%29.97 "Hg17 mi
6:00 PM69 °FOvercast.3 mph78%29.97 "Hg16 mi
Weather by CustomWeather, © 2014

See weather overviewHow to use our weather pages